station,date_time,longitude_east,latitude_north,depth,sw_sal,sw_sal_result_value_qualifier,sea_water_temperature,sea_water_temperature_result_value_qualifier,sea_water_pressure,sea_water_pressure_result_value_qualifier,KD_PAR,KD_PAR_result_value_qualifier
CH3-7,2019-01-28T20:00:00Z,-79.10,53.95,1,1.75,,-0.36,,, NC,, NC
CH3-7,2019-01-28T20:10:00Z,-79.10,53.95,1,1.76,,-0.36,,, NC,, NC
CH3-7,2019-01-28T20:20:00Z,-79.10,53.95,1,1.76,,-0.36,,, NC,, NC
CH3-7,2019-01-28T20:30:00Z,-79.10,53.95,1,1.75,,-0.36,,, NC,, NC
CH3-7,2019-01-28T20:40:00Z,-79.10,53.95,1,1.68,,-0.38,,, NC,, NC
CH3-7,2019-01-28T20:50:00Z,-79.10,53.95,1,1.67,,-0.38,,, NC,, NC
CH3-7,2019-01-28T21:00:00Z,-79.10,53.95,1,1.65,,-0.38,,, NC,, NC
CH3-7,2019-01-28T21:10:00Z,-79.10,53.95,1,1.67,,-0.39,,, NC,, NC
CH3-7,2019-01-28T21:20:00Z,-79.10,53.95,1,1.68,,-0.39,,, NC,, NC
CH3-7,2019-01-28T21:30:00Z,-79.10,53.95,1,1.68,,-0.39,,, NC,, NC
CH3-7,2019-01-28T21:40:00Z,-79.10,53.95,1,1.68,,-0.38,,, NC,, NC
CH3-7,2019-01-28T21:50:00Z,-79.10,53.95,1,1.70,,-0.36,,, NC,, NC
CH3-7,2019-01-28T22:00:00Z,-79.10,53.95,1,1.69,,-0.38,,, NC,, NC
CH3-7,2019-01-28T22:10:00Z,-79.10,53.95,1,1.72,,-0.38,,, NC,, NC
CH3-7,2019-01-28T22:20:00Z,-79.10,53.95,1,1.73,,-0.38,,, NC,, NC
CH3-7,2019-01-28T22:30:00Z,-79.10,53.95,1,1.74,,-0.39,,, NC,, NC
CH3-7,2019-01-28T22:40:00Z,-79.10,53.95,1,1.77,,-0.39,,, NC,, NC
CH3-7,2019-01-28T22:50:00Z,-79.10,53.95,1,1.78,,-0.39,,, NC,, NC
CH3-7,2019-01-28T23:00:00Z,-79.10,53.95,1,1.82,,-0.39,,, NC,, NC
CH3-7,2019-01-28T23:10:00Z,-79.10,53.95,1,1.82,,-0.39,,, NC,, NC
CH3-7,2019-01-28T23:20:00Z,-79.10,53.95,1,1.79,,-0.39,,, NC,, NC
CH3-7,2019-01-28T23:30:00Z,-79.10,53.95,1,1.80,,-0.40,,, NC,, NC
CH3-7,2019-01-28T23:40:00Z,-79.10,53.95,1,1.81,,-0.39,,, NC,, NC
CH3-7,2019-01-28T23:50:00Z,-79.10,53.95,1,1.83,,-0.40,,, NC,, NC
CH3-7,2019-01-29T00:00:00Z,-79.10,53.95,1,1.84,,-0.39,,, NC,, NC
CH3-7,2019-01-29T00:10:00Z,-79.10,53.95,1,1.86,,-0.40,,, NC,, NC
CH3-7,2019-01-29T00:20:00Z,-79.10,53.95,1,1.82,,-0.39,,, NC,, NC
CH3-7,2019-01-29T00:30:00Z,-79.10,53.95,1,1.77,,-0.38,,, NC,, NC
CH3-7,2019-01-29T00:40:00Z,-79.10,53.95,1,1.79,,-0.39,,, NC,, NC
CH3-7,2019-01-29T00:50:00Z,-79.10,53.95,1,1.80,,-0.40,,, NC,, NC
CH3-7,2019-01-29T01:00:00Z,-79.10,53.95,1,1.80,,-0.39,,, NC,, NC
CH3-7,2019-01-29T01:10:00Z,-79.10,53.95,1,1.81,,-0.39,,, NC,, NC
CH3-7,2019-01-29T01:20:00Z,-79.10,53.95,1,1.83,,-0.39,,, NC,, NC
CH3-7,2019-01-29T01:30:00Z,-79.10,53.95,1,1.83,,-0.39,,, NC,, NC
CH3-7,2019-01-29T01:40:00Z,-79.10,53.95,1,1.80,,-0.40,,, NC,, NC
CH3-7,2019-01-29T01:50:00Z,-79.10,53.95,1,1.80,,-0.40,,, NC,, NC
CH3-7,2019-01-29T02:00:00Z,-79.10,53.95,1,1.80,,-0.39,,, NC,, NC
CH3-7,2019-01-29T02:10:00Z,-79.10,53.95,1,1.80,,-0.39,,, NC,, NC
CH3-7,2019-01-29T02:20:00Z,-79.10,53.95,1,1.81,,-0.39,,, NC,, NC
CH3-7,2019-01-29T02:30:00Z,-79.10,53.95,1,1.86,,-0.39,,, NC,, NC
CH3-7,2019-01-29T02:40:00Z,-79.10,53.95,1,1.81,,-0.39,,, NC,, NC
CH3-7,2019-01-29T02:50:00Z,-79.10,53.95,1,1.78,,-0.39,,, NC,, NC
CH3-7,2019-01-29T03:00:00Z,-79.10,53.95,1,1.81,,-0.39,,, NC,, NC
CH3-7,2019-01-29T03:10:00Z,-79.10,53.95,1,1.87,,-0.40,,, NC,, NC
CH3-7,2019-01-29T03:20:00Z,-79.10,53.95,1,1.86,,-0.39,,, NC,, NC
CH3-7,2019-01-29T03:30:00Z,-79.10,53.95,1,1.92,,-0.40,,, NC,, NC
CH3-7,2019-01-29T03:40:00Z,-79.10,53.95,1,1.92,,-0.40,,, NC,, NC
CH3-7,2019-01-29T03:50:00Z,-79.10,53.95,1,1.92,,-0.39,,, NC,, NC
CH3-7,2019-01-29T04:00:00Z,-79.10,53.95,1,1.94,,-0.39,,, NC,, NC
CH3-7,2019-01-29T04:10:00Z,-79.10,53.95,1,1.91,,-0.40,,, NC,, NC
CH3-7,2019-01-29T04:20:00Z,-79.10,53.95,1,1.92,,-0.40,,, NC,, NC
CH3-7,2019-01-29T04:30:00Z,-79.10,53.95,1,1.97,,-0.40,,, NC,, NC
CH3-7,2019-01-29T04:40:00Z,-79.10,53.95,1,1.94,,-0.40,,, NC,, NC
CH3-7,2019-01-29T04:50:00Z,-79.10,53.95,1,1.95,,-0.40,,, NC,, NC
CH3-7,2019-01-29T05:00:00Z,-79.10,53.95,1,1.94,,-0.41,,, NC,, NC
CH3-7,2019-01-29T05:10:00Z,-79.10,53.95,1,1.95,,-0.41,,, NC,, NC
CH3-7,2019-01-29T05:20:00Z,-79.10,53.95,1,1.95,,-0.40,,, NC,, NC
CH3-7,2019-01-29T05:30:00Z,-79.10,53.95,1,1.96,,-0.40,,, NC,, NC
CH3-7,2019-01-29T05:40:00Z,-79.10,53.95,1,1.95,,-0.41,,, NC,, NC
CH3-7,2019-01-29T05:50:00Z,-79.10,53.95,1,1.93,,-0.40,,, NC,, NC
CH3-7,2019-01-29T06:00:00Z,-79.10,53.95,1,1.94,,-0.40,,, NC,, NC
CH3-7,2019-01-29T06:10:00Z,-79.10,53.95,1,1.87,,-0.39,,, NC,, NC
CH3-7,2019-01-29T06:20:00Z,-79.10,53.95,1,1.87,,-0.40,,, NC,, NC
CH3-7,2019-01-29T06:30:00Z,-79.10,53.95,1,1.87,,-0.39,,, NC,, NC
CH3-7,2019-01-29T06:40:00Z,-79.10,53.95,1,1.87,,-0.40,,, NC,, NC
CH3-7,2019-01-29T06:50:00Z,-79.10,53.95,1,1.87,,-0.38,,, NC,, NC
CH3-7,2019-01-29T07:00:00Z,-79.10,53.95,1,1.86,,-0.39,,, NC,, NC
CH3-7,2019-01-29T07:10:00Z,-79.10,53.95,1,1.87,,-0.38,,, NC,, NC
CH3-7,2019-01-29T07:20:00Z,-79.10,53.95,1,1.87,,-0.39,,, NC,, NC
CH3-7,2019-01-29T07:30:00Z,-79.10,53.95,1,1.87,,-0.39,,, NC,, NC
CH3-7,2019-01-29T07:40:00Z,-79.10,53.95,1,1.88,,-0.38,,, NC,, NC
CH3-7,2019-01-29T07:50:00Z,-79.10,53.95,1,1.86,,-0.38,,, NC,, NC
CH3-7,2019-01-29T08:00:00Z,-79.10,53.95,1,1.89,,-0.38,,, NC,, NC
CH3-7,2019-01-29T08:10:00Z,-79.10,53.95,1,1.89,,-0.38,,, NC,, NC
CH3-7,2019-01-29T08:20:00Z,-79.10,53.95,1,1.89,,-0.39,,, NC,, NC
CH3-7,2019-01-29T08:30:00Z,-79.10,53.95,1,1.87,,-0.38,,, NC,, NC
CH3-7,2019-01-29T08:40:00Z,-79.10,53.95,1,1.88,,-0.39,,, NC,, NC
CH3-7,2019-01-29T08:50:00Z,-79.10,53.95,1,1.88,,-0.38,,, NC,, NC
CH3-7,2019-01-29T09:00:00Z,-79.10,53.95,1,1.86,,-0.39,,, NC,, NC
CH3-7,2019-01-29T09:10:00Z,-79.10,53.95,1,1.86,,-0.39,,, NC,, NC
CH3-7,2019-01-29T09:20:00Z,-79.10,53.95,1,1.84,,-0.39,,, NC,, NC
CH3-7,2019-01-29T09:30:00Z,-79.10,53.95,1,1.75,,-0.41,,, NC,, NC
CH3-7,2019-01-29T09:40:00Z,-79.10,53.95,1,1.78,,-0.39,,, NC,, NC
CH3-7,2019-01-29T09:50:00Z,-79.10,53.95,1,1.81,,-0.39,,, NC,, NC
CH3-7,2019-01-29T10:00:00Z,-79.10,53.95,1,1.79,,-0.38,,, NC,, NC
CH3-7,2019-01-29T10:10:00Z,-79.10,53.95,1,1.80,,-0.39,,, NC,, NC
CH3-7,2019-01-29T10:20:00Z,-79.10,53.95,1,1.81,,-0.39,,, NC,, NC
CH3-7,2019-01-29T10:30:00Z,-79.10,53.95,1,1.81,,-0.39,,, NC,, NC
CH3-7,2019-01-29T10:40:00Z,-79.10,53.95,1,1.90,,-0.38,,, NC,, NC
CH3-7,2019-01-29T10:50:00Z,-79.10,53.95,1,1.91,,-0.40,,, NC,, NC
CH3-7,2019-01-29T11:00:00Z,-79.10,53.95,1,1.87,,-0.39,,, NC,, NC
CH3-7,2019-01-29T11:10:00Z,-79.10,53.95,1,1.95,,-0.40,,, NC,, NC
CH3-7,2019-01-29T11:20:00Z,-79.10,53.95,1,1.99,,-0.41,,, NC,, NC
CH3-7,2019-01-29T11:30:00Z,-79.10,53.95,1,1.99,,-0.40,,, NC,, NC
CH3-7,2019-01-29T11:40:00Z,-79.10,53.95,1,2.00,,-0.41,,, NC,, NC
CH3-7,2019-01-29T11:50:00Z,-79.10,53.95,1,1.99,,-0.41,,, NC,, NC
CH3-7,2019-01-29T12:00:00Z,-79.10,53.95,1,2.00,,-0.41,,, NC,, NC
CH3-7,2019-01-29T12:10:00Z,-79.10,53.95,1,2.01,,-0.40,,, NC,, NC
CH3-7,2019-01-29T12:20:00Z,-79.10,53.95,1,1.99,,-0.41,,, NC,, NC
CH3-7,2019-01-29T12:30:00Z,-79.10,53.95,1,2.01,,-0.39,,, NC,, NC
CH3-7,2019-01-29T12:40:00Z,-79.10,53.95,1,2.17,,-0.41,,, NC,, NC
CH3-7,2019-01-29T12:50:00Z,-79.10,53.95,1,2.16,,-0.41,,, NC,, NC
CH3-7,2019-01-29T13:00:00Z,-79.10,53.95,1,2.02,,-0.40,,, NC,, NC
CH3-7,2019-01-29T13:10:00Z,-79.10,53.95,1,1.99,,-0.40,,, NC,, NC
CH3-7,2019-01-29T13:20:00Z,-79.10,53.95,1,2.08,,-0.39,,, NC,, NC
CH3-7,2019-01-29T13:30:00Z,-79.10,53.95,1,2.16,,-0.41,,, NC,, NC
CH3-7,2019-01-29T13:40:00Z,-79.10,53.95,1,1.98,,-0.41,,, NC,, NC
CH3-7,2019-01-29T13:50:00Z,-79.10,53.95,1,1.98,,-0.40,,, NC,, NC
CH3-7,2019-01-29T14:00:00Z,-79.10,53.95,1,1.98,,-0.41,,, NC,, NC
CH3-7,2019-01-29T14:10:00Z,-79.10,53.95,1,2.08,,-0.40,,, NC,, NC
CH3-7,2019-01-29T14:20:00Z,-79.10,53.95,1,2.07,,-0.40,,, NC,, NC
CH3-7,2019-01-29T14:30:00Z,-79.10,53.95,1,2.19,,-0.41,,, NC,, NC
CH3-7,2019-01-29T14:40:00Z,-79.10,53.95,1,2.10,,-0.40,,, NC,, NC
CH3-7,2019-01-29T14:50:00Z,-79.10,53.95,1,1.96,,-0.40,,, NC,, NC
CH3-7,2019-01-29T15:00:00Z,-79.10,53.95,1,1.99,,-0.40,,, NC,, NC
CH3-7,2019-01-29T15:10:00Z,-79.10,53.95,1,2.10,,-0.41,,, NC,, NC
CH3-7,2019-01-29T15:20:00Z,-79.10,53.95,1,2.11,,-0.41,,, NC,, NC
CH3-7,2019-01-29T15:30:00Z,-79.10,53.95,1,2.09,,-0.41,,, NC,, NC
CH3-7,2019-01-29T15:40:00Z,-79.10,53.95,1,2.12,,-0.41,,, NC,, NC
CH3-7,2019-01-29T15:50:00Z,-79.10,53.95,1,2.17,,-0.41,,, NC,, NC
CH3-7,2019-01-29T16:00:00Z,-79.10,53.95,1,2.21,,-0.41,,, NC,, NC
CH3-7,2019-01-29T16:10:00Z,-79.10,53.95,1,2.23,,-0.41,,, NC,, NC
CH3-7,2019-01-29T16:20:00Z,-79.10,53.95,1,2.23,,-0.41,,, NC,, NC
CH3-7,2019-01-29T16:30:00Z,-79.10,53.95,1,2.23,,-0.41,,, NC,, NC
CH3-7,2019-01-29T16:40:00Z,-79.10,53.95,1,2.21,,-0.41,,, NC,, NC
CH3-7,2019-01-29T16:50:00Z,-79.10,53.95,1,2.19,,-0.40,,, NC,, NC
CH3-7,2019-01-29T17:00:00Z,-79.10,53.95,1,2.18,,-0.42,,, NC,, NC
CH3-7,2019-01-29T17:10:00Z,-79.10,53.95,1,2.17,,-0.40,,, NC,, NC
CH3-7,2019-01-29T17:20:00Z,-79.10,53.95,1,2.18,,-0.42,,, NC,, NC
CH3-7,2019-01-29T17:30:00Z,-79.10,53.95,1,2.17,,-0.44,,, NC,, NC
CH3-7,2019-01-29T17:40:00Z,-79.10,53.95,1,2.17,,-0.42,,, NC,, NC
CH3-7,2019-01-29T17:50:00Z,-79.10,53.95,1,2.17,,-0.42,,, NC,, NC
CH3-7,2019-01-29T18:00:00Z,-79.10,53.95,1,2.18,,-0.41,,, NC,, NC
CH3-7,2019-01-29T18:10:00Z,-79.10,53.95,1,2.18,,-0.41,,, NC,, NC
CH3-7,2019-01-29T18:20:00Z,-79.10,53.95,1,2.16,,-0.44,,, NC,, NC
CH3-7,2019-01-29T18:30:00Z,-79.10,53.95,1,2.16,,-0.42,,, NC,, NC
CH3-7,2019-01-29T18:40:00Z,-79.10,53.95,1,2.14,,-0.42,,, NC,, NC
CH3-7,2019-01-29T18:50:00Z,-79.10,53.95,1,2.15,,-0.42,,, NC,, NC
CH3-7,2019-01-29T19:00:00Z,-79.10,53.95,1,2.11,,-0.42,,, NC,, NC
CH3-7,2019-01-29T19:10:00Z,-79.10,53.95,1,2.10,,-0.41,,, NC,, NC
CH3-7,2019-01-29T19:20:00Z,-79.10,53.95,1,2.10,,-0.41,,, NC,, NC
CH3-7,2019-01-29T19:30:00Z,-79.10,53.95,1,2.08,,-0.42,,, NC,, NC
CH3-7,2019-01-29T19:40:00Z,-79.10,53.95,1,2.08,,-0.42,,, NC,, NC
CH3-7,2019-01-29T19:50:00Z,-79.10,53.95,1,2.10,,-0.41,,, NC,, NC
CH3-7,2019-01-29T20:00:00Z,-79.10,53.95,1,2.09,,-0.41,,, NC,, NC
CH3-7,2019-01-29T20:10:00Z,-79.10,53.95,1,2.11,,-0.42,,, NC,, NC
CH3-7,2019-01-29T20:20:00Z,-79.10,53.95,1,2.06,,-0.41,,, NC,, NC
CH3-7,2019-01-29T20:30:00Z,-79.10,53.95,1,2.04,,-0.40,,, NC,, NC
CH3-7,2019-01-29T20:40:00Z,-79.10,53.95,1,2.03,,-0.40,,, NC,, NC
CH3-7,2019-01-29T20:50:00Z,-79.10,53.95,1,1.92,,-0.40,,, NC,, NC
CH3-7,2019-01-29T21:00:00Z,-79.10,53.95,1,2.00,,-0.39,,, NC,, NC
CH3-7,2019-01-29T21:10:00Z,-79.10,53.95,1,1.97,,-0.39,,, NC,, NC
CH3-7,2019-01-29T21:20:00Z,-79.10,53.95,1,1.99,,-0.40,,, NC,, NC
CH3-7,2019-01-29T21:30:00Z,-79.10,53.95,1,2.06,,-0.41,,, NC,, NC
CH3-7,2019-01-29T21:40:00Z,-79.10,53.95,1,2.05,,-0.40,,, NC,, NC
CH3-7,2019-01-29T21:50:00Z,-79.10,53.95,1,2.05,,-0.40,,, NC,, NC
CH3-7,2019-01-29T22:00:00Z,-79.10,53.95,1,2.02,,-0.41,,, NC,, NC
CH3-7,2019-01-29T22:10:00Z,-79.10,53.95,1,2.01,,-0.40,,, NC,, NC
CH3-7,2019-01-29T22:20:00Z,-79.10,53.95,1,2.01,,-0.40,,, NC,, NC
CH3-7,2019-01-29T22:30:00Z,-79.10,53.95,1,2.01,,-0.40,,, NC,, NC
CH3-7,2019-01-29T22:40:00Z,-79.10,53.95,1,2.13,,-0.40,,, NC,, NC
CH3-7,2019-01-29T22:50:00Z,-79.10,53.95,1,2.13,,-0.40,,, NC,, NC
CH3-7,2019-01-29T23:00:00Z,-79.10,53.95,1,2.14,,-0.40,,, NC,, NC
CH3-7,2019-01-29T23:10:00Z,-79.10,53.95,1,2.12,,-0.40,,, NC,, NC
CH3-7,2019-01-29T23:20:00Z,-79.10,53.95,1,2.09,,-0.41,,, NC,, NC
CH3-7,2019-01-29T23:30:00Z,-79.10,53.95,1,2.08,,-0.40,,, NC,, NC
CH3-7,2019-01-29T23:40:00Z,-79.10,53.95,1,2.07,,-0.42,,, NC,, NC
CH3-7,2019-01-29T23:50:00Z,-79.10,53.95,1,2.07,,-0.41,,, NC,, NC
CH3-7,2019-01-30T00:00:00Z,-79.10,53.95,1,2.18,,-0.40,,, NC,, NC
CH3-7,2019-01-30T00:10:00Z,-79.10,53.95,1,2.17,,-0.40,,, NC,, NC
CH3-7,2019-01-30T00:20:00Z,-79.10,53.95,1,2.17,,-0.40,,, NC,, NC
CH3-7,2019-01-30T00:30:00Z,-79.10,53.95,1,2.17,,-0.40,,, NC,, NC
CH3-7,2019-01-30T00:40:00Z,-79.10,53.95,1,2.05,,-0.42,,, NC,, NC
CH3-7,2019-01-30T00:50:00Z,-79.10,53.95,1,2.13,,-0.41,,, NC,, NC
CH3-7,2019-01-30T01:00:00Z,-79.10,53.95,1,2.13,,-0.42,,, NC,, NC
CH3-7,2019-01-30T01:10:00Z,-79.10,53.95,1,2.15,,-0.40,,, NC,, NC
CH3-7,2019-01-30T01:20:00Z,-79.10,53.95,1,2.07,,-0.44,,, NC,, NC
CH3-7,2019-01-30T01:30:00Z,-79.10,53.95,1,2.04,,-0.42,,, NC,, NC
CH3-7,2019-01-30T01:40:00Z,-79.10,53.95,1,2.00,,-0.42,,, NC,, NC
CH3-7,2019-01-30T01:50:00Z,-79.10,53.95,1,2.01,,-0.41,,, NC,, NC
CH3-7,2019-01-30T02:00:00Z,-79.10,53.95,1,2.00,,-0.42,,, NC,, NC
CH3-7,2019-01-30T02:10:00Z,-79.10,53.95,1,2.00,,-0.44,,, NC,, NC
CH3-7,2019-01-30T02:20:00Z,-79.10,53.95,1,1.96,,-0.41,,, NC,, NC
CH3-7,2019-01-30T02:30:00Z,-79.10,53.95,1,1.98,,-0.41,,, NC,, NC
CH3-7,2019-01-30T02:40:00Z,-79.10,53.95,1,1.98,,-0.41,,, NC,, NC
CH3-7,2019-01-30T02:50:00Z,-79.10,53.95,1,1.99,,-0.41,,, NC,, NC
CH3-7,2019-01-30T03:00:00Z,-79.10,53.95,1,1.92,,-0.41,,, NC,, NC
CH3-7,2019-01-30T03:10:00Z,-79.10,53.95,1,1.88,,-0.40,,, NC,, NC
CH3-7,2019-01-30T03:20:00Z,-79.10,53.95,1,2.04,,-0.42,,, NC,, NC
CH3-7,2019-01-30T03:30:00Z,-79.10,53.95,1,2.05,,-0.41,,, NC,, NC
CH3-7,2019-01-30T03:40:00Z,-79.10,53.95,1,2.09,,-0.41,,, NC,, NC
CH3-7,2019-01-30T03:50:00Z,-79.10,53.95,1,2.17,,-0.42,,, NC,, NC
CH3-7,2019-01-30T04:00:00Z,-79.10,53.95,1,2.12,,-0.41,,, NC,, NC
CH3-7,2019-01-30T04:10:00Z,-79.10,53.95,1,2.09,,-0.41,,, NC,, NC
CH3-7,2019-01-30T04:20:00Z,-79.10,53.95,1,2.06,,-0.41,,, NC,, NC
CH3-7,2019-01-30T04:30:00Z,-79.10,53.95,1,2.04,,-0.41,,, NC,, NC
CH3-7,2019-01-30T04:40:00Z,-79.10,53.95,1,2.06,,-0.42,,, NC,, NC
CH3-7,2019-01-30T04:50:00Z,-79.10,53.95,1,2.06,,-0.41,,, NC,, NC
CH3-7,2019-01-30T05:00:00Z,-79.10,53.95,1,2.11,,-0.41,,, NC,, NC
CH3-7,2019-01-30T05:10:00Z,-79.10,53.95,1,2.06,,-0.41,,, NC,, NC
CH3-7,2019-01-30T05:20:00Z,-79.10,53.95,1,2.06,,-0.41,,, NC,, NC
CH3-7,2019-01-30T05:30:00Z,-79.10,53.95,1,2.08,,-0.41,,, NC,, NC
CH3-7,2019-01-30T05:40:00Z,-79.10,53.95,1,1.98,,-0.41,,, NC,, NC
CH3-7,2019-01-30T05:50:00Z,-79.10,53.95,1,1.99,,-0.41,,, NC,, NC
CH3-7,2019-01-30T06:00:00Z,-79.10,53.95,1,2.00,,-0.42,,, NC,, NC
CH3-7,2019-01-30T06:10:00Z,-79.10,53.95,1,1.98,,-0.42,,, NC,, NC
CH3-7,2019-01-30T06:20:00Z,-79.10,53.95,1,2.01,,-0.41,,, NC,, NC
CH3-7,2019-01-30T06:30:00Z,-79.10,53.95,1,2.04,,-0.41,,, NC,, NC
CH3-7,2019-01-30T06:40:00Z,-79.10,53.95,1,2.04,,-0.41,,, NC,, NC
CH3-7,2019-01-30T06:50:00Z,-79.10,53.95,1,2.05,,-0.41,,, NC,, NC
CH3-7,2019-01-30T07:00:00Z,-79.10,53.95,1,2.03,,-0.41,,, NC,, NC
CH3-7,2019-01-30T07:10:00Z,-79.10,53.95,1,2.05,,-0.41,,, NC,, NC
CH3-7,2019-01-30T07:20:00Z,-79.10,53.95,1,2.05,,-0.40,,, NC,, NC
CH3-7,2019-01-30T07:30:00Z,-79.10,53.95,1,2.03,,-0.41,,, NC,, NC
CH3-7,2019-01-30T07:40:00Z,-79.10,53.95,1,2.02,,-0.41,,, NC,, NC
CH3-7,2019-01-30T07:50:00Z,-79.10,53.95,1,2.02,,-0.41,,, NC,, NC
CH3-7,2019-01-30T08:00:00Z,-79.10,53.95,1,2.04,,-0.40,,, NC,, NC
CH3-7,2019-01-30T08:10:00Z,-79.10,53.95,1,2.04,,-0.40,,, NC,, NC
CH3-7,2019-01-30T08:20:00Z,-79.10,53.95,1,2.04,,-0.40,,, NC,, NC
CH3-7,2019-01-30T08:30:00Z,-79.10,53.95,1,2.04,,-0.40,,, NC,, NC
CH3-7,2019-01-30T08:40:00Z,-79.10,53.95,1,2.03,,-0.41,,, NC,, NC
CH3-7,2019-01-30T08:50:00Z,-79.10,53.95,1,2.01,,-0.41,,, NC,, NC
CH3-7,2019-01-30T09:00:00Z,-79.10,53.95,1,2.00,,-0.41,,, NC,, NC
CH3-7,2019-01-30T09:10:00Z,-79.10,53.95,1,2.00,,-0.41,,, NC,, NC
CH3-7,2019-01-30T09:20:00Z,-79.10,53.95,1,2.00,,-0.41,,, NC,, NC
CH3-7,2019-01-30T09:30:00Z,-79.10,53.95,1,2.00,,-0.40,,, NC,, NC
CH3-7,2019-01-30T09:40:00Z,-79.10,53.95,1,1.96,,-0.41,,, NC,, NC
CH3-7,2019-01-30T09:50:00Z,-79.10,53.95,1,1.96,,-0.42,,, NC,, NC
CH3-7,2019-01-30T10:00:00Z,-79.10,53.95,1,1.97,,-0.41,,, NC,, NC
CH3-7,2019-01-30T10:10:00Z,-79.10,53.95,1,1.97,,-0.42,,, NC,, NC
CH3-7,2019-01-30T10:20:00Z,-79.10,53.95,1,2.06,,-0.40,,, NC,, NC
CH3-7,2019-01-30T10:30:00Z,-79.10,53.95,1,1.99,,-0.41,,, NC,, NC
CH3-7,2019-01-30T10:40:00Z,-79.10,53.95,1,1.94,,-0.41,,, NC,, NC
CH3-7,2019-01-30T10:50:00Z,-79.10,53.95,1,1.93,,-0.41,,, NC,, NC
CH3-7,2019-01-30T11:00:00Z,-79.10,53.95,1,1.94,,-0.41,,, NC,, NC
CH3-7,2019-01-30T11:10:00Z,-79.10,53.95,1,1.97,,-0.41,,, NC,, NC
CH3-7,2019-01-30T11:20:00Z,-79.10,53.95,1,2.01,,-0.40,,, NC,, NC
CH3-7,2019-01-30T11:30:00Z,-79.10,53.95,1,2.02,,-0.41,,, NC,, NC
CH3-7,2019-01-30T11:40:00Z,-79.10,53.95,1,2.03,,-0.39,,, NC,, NC
CH3-7,2019-01-30T11:50:00Z,-79.10,53.95,1,2.03,,-0.40,,, NC,, NC
CH3-7,2019-01-30T12:00:00Z,-79.10,53.95,1,1.99,,-0.40,,, NC,, NC
CH3-7,2019-01-30T12:10:00Z,-79.10,53.95,1,2.11,,-0.40,,, NC,, NC
CH3-7,2019-01-30T12:20:00Z,-79.10,53.95,1,2.10,,-0.40,,, NC,, NC
CH3-7,2019-01-30T12:30:00Z,-79.10,53.95,1,2.14,,-0.40,,, NC,, NC
CH3-7,2019-01-30T12:40:00Z,-79.10,53.95,1,2.14,,-0.41,,, NC,, NC
CH3-7,2019-01-30T12:50:00Z,-79.10,53.95,1,2.07,,-0.42,,, NC,, NC
CH3-7,2019-01-30T13:00:00Z,-79.10,53.95,1,2.14,,-0.40,,, NC,, NC
CH3-7,2019-01-30T13:10:00Z,-79.10,53.95,1,2.14,,-0.42,,, NC,, NC
CH3-7,2019-01-30T13:20:00Z,-79.10,53.95,1,2.15,,-0.42,,, NC,, NC
CH3-7,2019-01-30T13:30:00Z,-79.10,53.95,1,2.11,,-0.42,,, NC,, NC
CH3-7,2019-01-30T13:40:00Z,-79.10,53.95,1,2.11,,-0.41,,, NC,, NC
CH3-7,2019-01-30T13:50:00Z,-79.10,53.95,1,1.97,,-0.42,,, NC,, NC
CH3-7,2019-01-30T14:00:00Z,-79.10,53.95,1,1.99,,-0.41,,, NC,, NC
CH3-7,2019-01-30T14:10:00Z,-79.10,53.95,1,1.95,,-0.42,,, NC,, NC
CH3-7,2019-01-30T14:20:00Z,-79.10,53.95,1,1.95,,-0.41,,, NC,, NC
CH3-7,2019-01-30T14:30:00Z,-79.10,53.95,1,1.95,,-0.41,,, NC,, NC
CH3-7,2019-01-30T14:40:00Z,-79.10,53.95,1,1.95,,-0.42,,, NC,, NC
CH3-7,2019-01-30T14:50:00Z,-79.10,53.95,1,1.96,,-0.41,,, NC,, NC
CH3-7,2019-01-30T15:00:00Z,-79.10,53.95,1,1.96,,-0.41,,, NC,, NC
CH3-7,2019-01-30T15:10:00Z,-79.10,53.95,1,1.95,,-0.41,,, NC,, NC
CH3-7,2019-01-30T15:20:00Z,-79.10,53.95,1,1.97,,-0.41,,, NC,, NC
CH3-7,2019-01-30T15:30:00Z,-79.10,53.95,1,1.91,,-0.41,,, NC,, NC
CH3-7,2019-01-30T15:40:00Z,-79.10,53.95,1,2.05,,-0.41,,, NC,, NC
CH3-7,2019-01-30T15:50:00Z,-79.10,53.95,1,2.03,,-0.41,,, NC,, NC
CH3-7,2019-01-30T16:00:00Z,-79.10,53.95,1,2.04,,-0.41,,, NC,, NC
CH3-7,2019-01-30T16:10:00Z,-79.10,53.95,1,2.03,,-0.40,,, NC,, NC
CH3-7,2019-01-30T16:20:00Z,-79.10,53.95,1,2.16,,-0.41,,, NC,, NC
CH3-7,2019-01-30T16:30:00Z,-79.10,53.95,1,2.20,,-0.41,,, NC,, NC
CH3-7,2019-01-30T16:40:00Z,-79.10,53.95,1,2.17,,-0.40,,, NC,, NC
CH3-7,2019-01-30T16:50:00Z,-79.10,53.95,1,2.17,,-0.41,,, NC,, NC
CH3-7,2019-01-30T17:00:00Z,-79.10,53.95,1,2.12,,-0.41,,, NC,, NC
CH3-7,2019-01-30T17:10:00Z,-79.10,53.95,1,2.14,,-0.42,,, NC,, NC
CH3-7,2019-01-30T17:20:00Z,-79.10,53.95,1,2.14,,-0.41,,, NC,, NC
CH3-7,2019-01-30T17:30:00Z,-79.10,53.95,1,2.13,,-0.42,,, NC,, NC
CH3-7,2019-01-30T17:40:00Z,-79.10,53.95,1,2.11,,-0.41,,, NC,, NC
CH3-7,2019-01-30T17:50:00Z,-79.10,53.95,1,2.08,,-0.42,,, NC,, NC
CH3-7,2019-01-30T18:00:00Z,-79.10,53.95,1,2.07,,-0.41,,, NC,, NC
CH3-7,2019-01-30T18:10:00Z,-79.10,53.95,1,2.08,,-0.42,,, NC,, NC
CH3-7,2019-01-30T18:20:00Z,-79.10,53.95,1,2.04,,-0.42,,, NC,, NC
CH3-7,2019-01-30T18:30:00Z,-79.10,53.95,1,2.10,,-0.41,,, NC,, NC
CH3-7,2019-01-30T18:40:00Z,-79.10,53.95,1,2.06,,-0.42,,, NC,, NC
CH3-7,2019-01-30T18:50:00Z,-79.10,53.95,1,2.06,,-0.42,,, NC,, NC
CH3-7,2019-01-30T19:00:00Z,-79.10,53.95,1,2.02,,-0.42,,, NC,, NC
CH3-7,2019-01-30T19:10:00Z,-79.10,53.95,1,2.00,,-0.42,,, NC,, NC
CH3-7,2019-01-30T19:20:00Z,-79.10,53.95,1,1.99,,-0.42,,, NC,, NC
CH3-7,2019-01-30T19:30:00Z,-79.10,53.95,1,1.99,,-0.42,,, NC,, NC
CH3-7,2019-01-30T19:40:00Z,-79.10,53.95,1,2.00,,-0.42,,, NC,, NC
CH3-7,2019-01-30T19:50:00Z,-79.10,53.95,1,2.00,,-0.42,,, NC,, NC
CH3-7,2019-01-30T20:00:00Z,-79.10,53.95,1,1.96,,-0.42,,, NC,, NC
CH3-7,2019-01-30T20:10:00Z,-79.10,53.95,1,1.96,,-0.42,,, NC,, NC
CH3-7,2019-01-30T20:20:00Z,-79.10,53.95,1,1.96,,-0.42,,, NC,, NC
CH3-7,2019-01-30T20:30:00Z,-79.10,53.95,1,1.97,,-0.42,,, NC,, NC
CH3-7,2019-01-30T20:40:00Z,-79.10,53.95,1,1.97,,-0.42,,, NC,, NC
CH3-7,2019-01-30T20:50:00Z,-79.10,53.95,1,1.98,,-0.41,,, NC,, NC
CH3-7,2019-01-30T21:00:00Z,-79.10,53.95,1,1.97,,-0.42,,, NC,, NC
CH3-7,2019-01-30T21:10:00Z,-79.10,53.95,1,1.97,,-0.42,,, NC,, NC
CH3-7,2019-01-30T21:20:00Z,-79.10,53.95,1,1.99,,-0.42,,, NC,, NC
CH3-7,2019-01-30T21:30:00Z,-79.10,53.95,1,2.00,,-0.42,,, NC,, NC
CH3-7,2019-01-30T21:40:00Z,-79.10,53.95,1,2.01,,-0.42,,, NC,, NC
CH3-7,2019-01-30T21:50:00Z,-79.10,53.95,1,2.01,,-0.42,,, NC,, NC
CH3-7,2019-01-30T22:00:00Z,-79.10,53.95,1,2.01,,-0.41,,, NC,, NC
CH3-7,2019-01-30T22:10:00Z,-79.10,53.95,1,2.04,,-0.41,,, NC,, NC
CH3-7,2019-01-30T22:20:00Z,-79.10,53.95,1,2.02,,-0.40,,, NC,, NC
CH3-7,2019-01-30T22:30:00Z,-79.10,53.95,1,2.08,,-0.40,,, NC,, NC
CH3-7,2019-01-30T22:40:00Z,-79.10,53.95,1,2.05,,-0.42,,, NC,, NC
CH3-7,2019-01-30T22:50:00Z,-79.10,53.95,1,2.02,,-0.42,,, NC,, NC
CH3-7,2019-01-30T23:00:00Z,-79.10,53.95,1,2.00,,-0.42,,, NC,, NC
CH3-7,2019-01-30T23:10:00Z,-79.10,53.95,1,1.98,,-0.42,,, NC,, NC
CH3-7,2019-01-30T23:20:00Z,-79.10,53.95,1,1.99,,-0.40,,, NC,, NC
CH3-7,2019-01-30T23:30:00Z,-79.10,53.95,1,2.00,,-0.41,,, NC,, NC
CH3-7,2019-01-30T23:40:00Z,-79.10,53.95,1,2.06,,-0.41,,, NC,, NC
CH3-7,2019-01-30T23:50:00Z,-79.10,53.95,1,2.01,,-0.41,,, NC,, NC
CH3-7,2019-01-31T00:00:00Z,-79.10,53.95,1,2.01,,-0.40,,, NC,, NC
CH3-7,2019-01-31T00:10:00Z,-79.10,53.95,1,2.06,,-0.41,,, NC,, NC
CH3-7,2019-01-31T00:20:00Z,-79.10,53.95,1,2.09,,-0.41,,, NC,, NC
CH3-7,2019-01-31T00:30:00Z,-79.10,53.95,1,2.14,,-0.41,,, NC,, NC
CH3-7,2019-01-31T00:40:00Z,-79.10,53.95,1,2.12,,-0.41,,, NC,, NC
CH3-7,2019-01-31T00:50:00Z,-79.10,53.95,1,2.11,,-0.42,,, NC,, NC
CH3-7,2019-01-31T01:00:00Z,-79.10,53.95,1,2.15,,-0.41,,, NC,, NC
CH3-7,2019-01-31T01:10:00Z,-79.10,53.95,1,2.03,,-0.42,,, NC,, NC
CH3-7,2019-01-31T01:20:00Z,-79.10,53.95,1,2.14,,-0.41,,, NC,, NC
CH3-7,2019-01-31T01:30:00Z,-79.10,53.95,1,2.14,,-0.41,,, NC,, NC
CH3-7,2019-01-31T01:40:00Z,-79.10,53.95,1,2.14,,-0.41,,, NC,, NC
CH3-7,2019-01-31T01:50:00Z,-79.10,53.95,1,2.09,,-0.41,,, NC,, NC
CH3-7,2019-01-31T02:00:00Z,-79.10,53.95,1,2.08,,-0.42,,, NC,, NC
CH3-7,2019-01-31T02:10:00Z,-79.10,53.95,1,2.08,,-0.42,,, NC,, NC
CH3-7,2019-01-31T02:20:00Z,-79.10,53.95,1,2.10,,-0.42,,, NC,, NC
CH3-7,2019-01-31T02:30:00Z,-79.10,53.95,1,2.00,,-0.41,,, NC,, NC
CH3-7,2019-01-31T02:40:00Z,-79.10,53.95,1,2.09,,-0.42,,, NC,, NC
CH3-7,2019-01-31T02:50:00Z,-79.10,53.95,1,2.15,,-0.41,,, NC,, NC
CH3-7,2019-01-31T03:00:00Z,-79.10,53.95,1,1.99,,-0.41,,, NC,, NC
CH3-7,2019-01-31T03:10:00Z,-79.10,53.95,1,2.02,,-0.41,,, NC,, NC
CH3-7,2019-01-31T03:20:00Z,-79.10,53.95,1,2.00,,-0.44,,, NC,, NC
CH3-7,2019-01-31T03:30:00Z,-79.10,53.95,1,2.01,,-0.42,,, NC,, NC
CH3-7,2019-01-31T03:40:00Z,-79.10,53.95,1,1.95,,-0.41,,, NC,, NC
CH3-7,2019-01-31T03:50:00Z,-79.10,53.95,1,1.97,,-0.42,,, NC,, NC
CH3-7,2019-01-31T04:00:00Z,-79.10,53.95,1,1.95,,-0.44,,, NC,, NC
CH3-7,2019-01-31T04:10:00Z,-79.10,53.95,1,1.96,,-0.42,,, NC,, NC
CH3-7,2019-01-31T04:20:00Z,-79.10,53.95,1,1.96,,-0.44,,, NC,, NC
CH3-7,2019-01-31T04:30:00Z,-79.10,53.95,1,1.98,,-0.42,,, NC,, NC
CH3-7,2019-01-31T04:40:00Z,-79.10,53.95,1,1.95,,-0.44,,, NC,, NC
CH3-7,2019-01-31T04:50:00Z,-79.10,53.95,1,1.98,,-0.42,,, NC,, NC
CH3-7,2019-01-31T05:00:00Z,-79.10,53.95,1,1.97,,-0.42,,, NC,, NC
CH3-7,2019-01-31T05:10:00Z,-79.10,53.95,1,2.05,,-0.41,,, NC,, NC
CH3-7,2019-01-31T05:20:00Z,-79.10,53.95,1,2.05,,-0.42,,, NC,, NC
CH3-7,2019-01-31T05:30:00Z,-79.10,53.95,1,2.04,,-0.42,,, NC,, NC
CH3-7,2019-01-31T05:40:00Z,-79.10,53.95,1,2.01,,-0.44,,, NC,, NC
CH3-7,2019-01-31T05:50:00Z,-79.10,53.95,1,2.01,,-0.42,,, NC,, NC
CH3-7,2019-01-31T06:00:00Z,-79.10,53.95,1,2.01,,-0.41,,, NC,, NC
CH3-7,2019-01-31T06:10:00Z,-79.10,53.95,1,2.07,,-0.41,,, NC,, NC
CH3-7,2019-01-31T06:20:00Z,-79.10,53.95,1,2.06,,-0.41,,, NC,, NC
CH3-7,2019-01-31T06:30:00Z,-79.10,53.95,1,2.06,,-0.40,,, NC,, NC
CH3-7,2019-01-31T06:40:00Z,-79.10,53.95,1,2.04,,-0.41,,, NC,, NC
CH3-7,2019-01-31T06:50:00Z,-79.10,53.95,1,2.01,,-0.41,,, NC,, NC
CH3-7,2019-01-31T07:00:00Z,-79.10,53.95,1,2.01,,-0.41,,, NC,, NC
CH3-7,2019-01-31T07:10:00Z,-79.10,53.95,1,2.02,,-0.42,,, NC,, NC
CH3-7,2019-01-31T07:20:00Z,-79.10,53.95,1,2.02,,-0.41,,, NC,, NC
CH3-7,2019-01-31T07:30:00Z,-79.10,53.95,1,2.01,,-0.41,,, NC,, NC
CH3-7,2019-01-31T07:40:00Z,-79.10,53.95,1,2.00,,-0.41,,, NC,, NC
CH3-7,2019-01-31T07:50:00Z,-79.10,53.95,1,1.99,,-0.42,,, NC,, NC
CH3-7,2019-01-31T08:00:00Z,-79.10,53.95,1,1.99,,-0.42,,, NC,, NC
CH3-7,2019-01-31T08:10:00Z,-79.10,53.95,1,1.98,,-0.41,,, NC,, NC
CH3-7,2019-01-31T08:20:00Z,-79.10,53.95,1,1.98,,-0.41,,, NC,, NC
CH3-7,2019-01-31T08:30:00Z,-79.10,53.95,1,1.97,,-0.42,,, NC,, NC
CH3-7,2019-01-31T08:40:00Z,-79.10,53.95,1,1.96,,-0.42,,, NC,, NC